Location: Asheville, NC
(35.6000°N, 82.5500°W)
Time: 16:53:17
(UTC-05:00)

BEESAT 2 - Visible Passes

Search period start: 21 January 2018 00:00
Search period end: 31 January 2018 00:00
Orbit: 498 x 539 km, 64.9° (Epoch: 21 January)

Date Brightness Start Highest point End Pass type
(mag) Time Alt. Az. Time Alt. Az. Time Alt. Az.
21 Jan ? 19:41:46 10° NNW 19:43:32 24° NNW 19:43:32 24° NNW visible
22 Jan ? 19:26:53 10° NNW 19:30:31 60° NNE 19:30:31 60° NNE visible
23 Jan ? 19:12:00 10° NNW 19:15:58 66° ENE 19:18:08 25° SE visible
24 Jan ? 18:57:06 10° NNW 19:01:05 69° ENE 19:04:59 10° SE visible
25 Jan ? 18:42:13 10° NNW 18:46:12 73° ENE 18:50:07 10° SE visible
26 Jan ? 18:27:19 10° NNW 18:31:19 77° ENE 18:35:14 10° SSE visible
27 Jan ? 18:12:26 10° NNW 18:16:25 80° ENE 18:20:21 10° SSE visible
